Latest Coastal Weather Observations for Hamilton Island

IDQ60701

Issued at 5:12 pm EST Tuesday 7 July 2015 (issued every 10 minutes, with the page automatically refreshed every 10 minutes)

About coastal observations | Map of coastal stations | Coastal observations for QLD | Marine services | Other Formats
Station Details ID: 033106 Name: HAMILTON ISLAND AIRPORT Lat: -20.37 Lon: 148.95 Height: 58.66 m
Data from the previous 72 hours. | See also: Recent months at Hamilton Island
Date/Time
EST
Temp

°C
Wind Pressure Rain
since 9am
mm
Weather Cloud Vis
km
Sea
Height
m
Swell
Dir
 
Speed
knots
Gust
knots
hPa Trend Height
m
Period
s
Dir
07/05:00pm 20.2 SSE 10 11 1016.6 - 0.0 - - 10 - - - -
07/04:30pm 20.5 SSE 8 10 1016.4 - 0.0 - - 10 - - - -
07/04:00pm 20.8 S 8 11 1016.2 - 0.0 - - 10 - - - -
07/03:30pm 21.0 S 8 11 1016.1 - 0.0 - - 10 - - - -
07/03:00pm 21.8 S 7 9 1015.9 - 0.0 - - 10 - - - -
07/02:30pm 21.8 SSE 8 11 1016.1 - 0.0 - - 10 - - - -
07/02:00pm 21.7 SSE 9 12 1016.4 - 0.0 - - 10 - - - -
07/01:30pm 21.5 SSE 10 13 1016.5 - 0.0 - - 10 - - - -
07/01:00pm 21.5 SSE 10 12 1016.9 - 0.0 - - 10 - - - -
07/12:30pm 21.3 SSE 10 12 1017.3 - 0.0 - - 10 - - - -
07/12:00pm 22.2 SSE 8 13 1017.5 - 0.0 - - 10 - - - -
07/11:30am 22.0 S 8 11 1018.1 - 0.0 - - 10 - - - -
07/11:00am 21.6 SSE 8 12 1018.4 - 0.0 - - 10 - - - -
07/10:30am 21.0 SSE 10 12 1018.6 - 0.0 - - 10 - - - -
07/10:00am 20.9 SSE 10 13 1018.6 - 0.0 - - 10 - - - -
07/09:30am 20.7 SSE 10 12 1018.8 - 0.0 - - 10 - - - -
07/09:00am 20.3 SSE 10 13 1018.5 - 0.0 - - 10 - - - -
07/08:30am 20.3 SSE 9 12 1018.3 - 0.0 - - 10 - - - -
07/08:00am 19.6 S 11 13 1018.0 - 0.0 - - 10 - - - -
07/07:30am 19.2 S 10 12 1017.6 - 0.0 - - 10 - - - -
07/07:00am 18.8 S 11 13 1017.2 - 0.0 - - 10 - - - -
07/06:30am 18.8 S 12 14 1016.9 - 0.0 - - 10 - - - -
07/06:00am 18.7 S 11 13 1016.4 - 0.0 - - 10 - - - -
07/05:30am 18.7 S 11 13 1016.4 - 0.0 - - 10 - - - -
07/05:00am 18.8 S 12 14 1016.3 - 0.0 - - 10 - - - -
07/04:30am 18.8 S 11 13 1016.1 - 0.0 - - 10 - - - -
07/04:00am 18.8 S 12 14 1016.1 - 0.0 - Partly cloudy 10 - - - -
07/03:30am 18.8 S 12 14 1016.2 - 0.0 - Partly cloudy 10 - - - -
07/03:00am 18.9 S 11 14 1016.3 - 0.0 - - 10 - - - -
07/02:30am 19.0 S 10 11 1016.6 - 0.0 - - 10 - - - -
07/02:00am 19.1 S 11 13 1016.7 - 0.0 - - 10 - - - -
07/01:30am 19.6 S 10 11 1017.0 - 0.0 - - 10 - - - -
07/01:00am 19.9 SE 9 10 1017.3 - 0.0 - - 10 - - - -
07/12:30am 19.7 SE 9 10 1017.5 - 0.0 - - 10 - - - -
07/12:00am 19.9 SE 8 9 1017.6 - 0.0 - Mostly clear 10 - - - -
 
Date/Time
EST
Temp

°C
Wind Pressure Rain
since 9am
mm
Weather Cloud Vis
km
Sea
Height
m
Swell
Dir
 
Speed
knots
Gust
knots
hPa Trend Height
m
Period
s
Dir
06/11:30pm 19.9 SE 10 11 1017.8 - 0.0 - Partly cloudy 10 - - - -
06/11:00pm 19.9 SE 9 11 1017.8 - 0.0 - Partly cloudy 10 - - - -
06/10:30pm 20.4 SE 10 11 1018.0 - 0.0 - Partly cloudy 10 - - - -
06/10:00pm 20.5 ESE 12 13 1018.0 - 0.0 - Partly cloudy 10 - - - -
06/09:30pm 20.5 ESE 12 14 1017.9 - 0.0 - Partly cloudy 10 - - - -
06/09:00pm 20.5 SE 11 13 1017.8 - 0.0 - Partly cloudy 10 - - - -
06/08:30pm 20.3 SE 11 13 1017.9 - 0.0 - Partly cloudy 10 - - - -
06/08:00pm 20.4 ESE 12 14 1017.8 - 0.0 - - 10 - - - -
06/07:30pm 20.5 ESE 12 14 1017.5 - 0.0 - - 10 - - - -
06/07:00pm 20.4 ESE 12 14 1017.3 - 0.0 - - 10 - - - -
06/06:30pm 20.7 ESE 13 14 1016.9 - 0.0 - - 10 - - - -
06/06:00pm 20.7 ESE 13 15 1016.5 - 0.0 - - 10 - - - -
06/05:30pm 20.9 ESE 14 15 1016.4 - 0.0 - - 10 - - - -
06/05:00pm 21.0 ESE 13 15 1016.4 - 0.0 - - 10 - - - -
06/04:30pm 21.1 ESE 13 15 1016.4 - 0.0 - - 10 - - - -
06/04:00pm 21.3 ESE 12 15 1016.3 - 0.0 - - 10 - - - -
06/03:30pm 21.4 ESE 12 14 1016.3 - 0.0 - - 10 - - - -
06/03:00pm 21.1 SE 11 13 1016.4 - 0.0 - - 10 - - - -
06/02:30pm 21.2 SSE 12 13 1016.7 - 0.0 - - 10 - - - -
06/02:00pm 21.3 SSE 11 13 1016.9 - 0.0 - - 10 - - - -
06/01:30pm 21.4 SSE 12 14 1017.2 - 0.0 - - 10 - - - -
06/01:00pm 21.2 SSE 12 16 1017.5 - 0.0 - - 10 - - - -
06/12:30pm 21.1 SSE 13 16 1018.0 - 0.0 - - 10 - - - -
06/12:00pm 21.3 SSE 12 15 1018.4 - 0.0 - - 10 - - - -
06/11:30am 21.1 SSE 13 16 1018.8 - 0.0 - Partly cloudy 10 - - - -
06/11:00am 21.0 SSE 13 16 1019.1 - 0.0 - - 10 - - - -
06/10:30am 20.8 SSE 14 17 1019.2 - 0.0 - - 10 - - - -
06/10:00am 21.0 SSE 14 16 1019.5 - 0.0 - - 10 - - - -
06/09:30am 20.8 SSE 14 17 1019.6 - 0.0 - - 10 - - - -
06/09:00am 20.5 SSE 15 17 1019.2 - 1.4 - Mostly clear 10 - - - -
06/08:30am 20.5 SSE 15 16 1019.1 - 1.4 - Partly cloudy 10 - - - -
06/08:00am 19.5 SSE 14 17 1019.0 - 1.4 - Partly cloudy 10 - - - -
06/07:30am 19.4 S 12 15 1018.8 - 1.4 - - 10 - - - -
06/07:00am 19.3 SSE 13 15 1018.5 - 1.4 - Partly cloudy 10 - - - -
06/06:30am 19.3 SSE 14 17 1018.3 - 1.4 - Partly cloudy 10 - - - -
06/06:00am 19.1 S 13 15 1018.1 - 1.4 - - 10 - - - -
06/05:30am 18.8 S 12 15 1018.1 - 1.4 - Partly cloudy 10 - - - -
06/05:00am 19.0 S 13 15 1018.1 - 1.4 - Partly cloudy 10 - - - -
06/04:30am 18.9 S 13 15 1018.1 - 1.4 - Partly cloudy 10 - - - -
06/04:00am 19.1 S 12 16 1018.2 - 1.4 - Partly cloudy 10 - - - -
06/03:30am 20.0 SSE 10 15 1018.3 - 1.4 - Partly cloudy 10 - - - -
06/03:00am 19.9 S 8 11 1018.2 - 1.4 - Cloudy 10 - - - -
06/02:30am 19.7 SSE 9 11 1018.3 - 1.4 - Partly cloudy 10 - - - -
06/02:00am 19.4 S 11 14 1018.5 - 1.4 - Partly cloudy 10 - - - -
06/01:30am 19.6 S 12 15 1018.8 - 1.4 - Partly cloudy 10 - - - -
06/01:00am 20.4 SE 12 15 1019.1 - 1.4 - Partly cloudy 10 - - - -
06/12:30am 20.4 SE 12 14 1019.4 - 1.4 - Partly cloudy 10 - - - -
06/12:00am 20.5 SE 13 14 1019.2 - 1.4 - Cloudy 10 - - - -
 
Date/Time
EST
Temp

°C
Wind Pressure Rain
since 9am
mm
Weather Cloud Vis
km
Sea
Height
m
Swell
Dir
 
Speed
knots
Gust
knots
hPa Trend Height
m
Period
s
Dir
05/11:30pm 20.5 SE 13 14 1019.5 - 1.4 - Partly cloudy 10 - - - -
05/11:00pm 20.2 SE 13 15 1019.7 - 1.4 - - 10 - - - -
05/10:30pm 20.3 SE 12 15 1020.0 - 1.4 - Partly cloudy 10 - - - -
05/10:00pm 20.4 SE 13 16 1019.8 - 1.4 - Partly cloudy 10 - - - -
05/09:30pm 20.4 SE 15 17 1019.9 - 1.4 - Cloudy 10 - - - -
05/09:00pm 19.5 SE 18 22 1019.5 - 1.4 - Cloudy 10 - - - -
05/08:30pm 19.8 SE 13 15 1019.7 - 1.4 - Partly cloudy 10 - - - -
05/08:00pm 19.7 SE 14 16 1019.6 - 1.4 - Partly cloudy 10 - - - -
05/07:30pm 19.4 SSE 13 15 1019.4 - 1.4 - Cloudy 10 - - - -
05/07:00pm 18.9 SE 20 23 1018.9 - 1.4 - Partly cloudy 10 - - - -
05/06:30pm 19.1 SE 19 24 1018.6 - 1.4 - Partly cloudy 10 - - - -
05/06:25pm 19.5 SE 15 22 1018.6 - 1.4 - Partly cloudy 10 - - - -
05/06:00pm 19.0 E 6 9 1018.4 - 1.4 - Cloudy 10 - - - -
05/05:30pm 19.6 SE 16 18 1018.4 - 1.4 - Partly cloudy 10 - - - -
05/05:00pm 19.5 SSE 10 12 1018.4 - 1.4 - Partly cloudy 10 - - - -
05/04:30pm 19.2 SSE 15 17 1018.3 - 1.4 - Partly cloudy 10 - - - -
05/04:00pm 18.7 SSE 16 19 1018.3 - 1.4 - Partly cloudy 10 - - - -
05/03:30pm 18.5 ESE 15 17 1018.3 - 1.4 - Partly cloudy 10 - - - -
05/03:29pm 18.5 ESE 15 18 1018.4 - 1.4 - Partly cloudy 10 - - - -
05/03:07pm 18.7 ESE 23 27 1018.3 - 0.8 - Partly cloudy 6 - - - -
05/03:00pm 19.4 ESE 22 25 1018.1 - 0.6 - Cloudy 10 - - - -
05/02:59pm 19.5 ESE 22 25 1018.1 - 0.6 - Partly cloudy 10 - - - -
05/02:30pm 20.6 SSE 17 21 1018.3 - 0.6 - Partly cloudy 10 - - - -
05/02:00pm 20.5 SSE 17 19 1018.4 - 0.6 - Partly cloudy 10 - - - -
05/01:30pm 20.4 SSE 19 21 1018.6 - 0.6 - Partly cloudy 10 - - - -
05/01:00pm 20.4 SSE 16 21 1018.9 - 0.6 - Partly cloudy 10 - - - -
05/12:30pm 20.8 SSE 15 17 1019.2 - 0.6 - Partly cloudy 10 - - - -
05/12:00pm 20.1 SSE 13 16 1019.6 - 0.6 - Cloudy 10 - - - -
05/11:48am 20.0 SSE 15 18 1020.0 - 0.6 - Partly cloudy 10 - - - -
05/11:30am 19.6 SSE 19 26 1020.2 - 0.6 - Partly cloudy 10 - - - -
05/11:00am 19.9 SSE 16 19 1020.3 - 0.0 - Partly cloudy 10 - - - -
05/10:45am 19.3 S 15 20 1020.5 - 0.0 - Partly cloudy - - - - -
05/10:30am 19.8 SSE 18 21 1020.6 - 0.0 - Partly cloudy 10 - - - -
05/10:00am 20.1 SSE 17 20 1020.6 - 0.0 - Partly cloudy - - - - -
05/09:30am 19.7 SSE 17 21 1020.6 - 0.0 - Partly cloudy 10 - - - -
05/09:00am 19.5 SSE 16 20 1020.4 - 0.0 - Cloudy 10 - - - -
05/08:30am 19.7 SSE 15 19 1020.3 - 0.0 - Partly cloudy 10 - - - -
05/08:04am 19.4 SSE 17 20 1019.9 - 0.0 - Partly cloudy 10 - - - -
05/08:00am 19.3 SSE 17 20 1019.9 - 0.0 - Partly cloudy 10 - - - -
05/07:46am 18.6 SSE 16 21 1019.9 - 0.0 - Partly cloudy 10 - - - -
05/07:30am 18.6 S 15 19 1019.9 - 0.0 - Partly cloudy 10 - - - -
05/07:00am 18.7 S 16 21 1019.6 - 0.0 - Partly cloudy 10 - - - -
05/06:30am 18.7 S 14 18 1019.1 - 0.0 - Partly cloudy 10 - - - -
05/06:02am 18.7 SSE 13 16 1018.7 - 0.0 - Partly cloudy 10 - - - -
05/06:00am 18.7 SSE 13 16 1018.5 - 0.0 - Partly cloudy 10 - - - -
05/05:31am 18.8 SSE 15 18 1018.6 - 0.0 - Partly cloudy 10 - - - -
05/05:30am 18.8 SSE 15 18 1018.6 - 0.0 - Partly cloudy 10 - - - -
05/05:00am 19.1 SSE 16 19 1018.5 - 0.0 - Partly cloudy 10 - - - -
05/04:30am 19.0 SSE 13 17 1018.3 - 0.0 - Partly cloudy 10 - - - -
05/04:00am 19.1 SSE 15 18 1018.4 - 0.0 - Partly cloudy 10 - - - -
05/03:30am 19.2 SSE 14 18 1018.5 - 0.0 - Partly cloudy 10 - - - -
05/03:00am 19.8 SE 16 18 1018.4 - 0.0 - Cloudy 10 - - - -
05/02:30am 19.1 SE 16 19 1018.6 - 0.0 - Partly cloudy 10 - - - -
05/02:00am 18.6 SSE 16 20 1018.8 - 0.0 - Partly cloudy 10 - - - -
05/01:39am 19.0 S 16 19 1019.1 - 0.0 - Partly cloudy 10 - - - -
05/01:30am 19.0 S 15 19 1019.2 - 0.0 - Partly cloudy 10 - - - -
05/01:24am 19.0 S 15 19 1019.2 - 0.0 - Partly cloudy 10 - - - -
05/01:00am 19.3 SSE 16 19 1019.2 - 0.0 - Partly cloudy 10 - - - -
05/12:54am 19.3 SSE 17 22 1019.2 - 0.0 - Partly cloudy 10 - - - -
05/12:30am 19.4 SSE 17 20 1019.5 - 0.0 - Partly cloudy 10 - - - -
05/12:27am 19.4 SSE 17 20 1019.4 - 0.0 - Partly cloudy 10 - - - -
05/12:00am 19.3 SSE 18 20 1019.4 - 0.0 - - 10 - - - -
 
Date/Time
EST
Temp

°C
Wind Pressure Rain
since 9am
mm
Weather Cloud Vis
km
Sea
Height
m
Swell
Dir
 
Speed
knots
Gust
knots
hPa Trend Height
m
Period
s
Dir
04/11:34pm 19.2 SSE 17 19 1019.7 - 0.0 - Partly cloudy 10 - - - -
04/11:30pm 19.2 SSE 17 19 1019.8 - 0.0 - Partly cloudy 10 - - - -
04/11:01pm 19.5 SSE 17 20 1020.0 - 0.0 - Partly cloudy 10 - - - -
04/11:00pm 19.5 SSE 17 20 1020.1 - 0.0 - Partly cloudy 10 - - - -
04/10:57pm 19.6 SSE 17 20 1020.1 - 0.0 - Partly cloudy 10 - - - -
04/10:47pm 19.7 SSE 17 20 1020.1 - 0.0 - Partly cloudy 10 - - - -
04/10:30pm 19.6 SSE 17 20 1020.1 - 0.0 - Partly cloudy 10 - - - -
04/10:00pm 19.8 SSE 16 18 1020.2 - 0.0 - Partly cloudy 10 - - - -
04/09:30pm 20.0 SE 16 18 1020.3 - 0.0 - Partly cloudy 10 - - - -
04/09:24pm 19.9 SE 16 18 1020.3 - 0.0 - Partly cloudy 10 - - - -
04/09:00pm 19.6 SSE 16 18 1020.0 - 0.0 - Partly cloudy 10 - - - -
04/08:58pm 19.7 SSE 15 18 1020.2 - 0.0 - Partly cloudy 10 - - - -
04/08:30pm 19.7 SSE 17 19 1020.1 - 0.0 - Partly cloudy 10 - - - -
04/08:23pm 19.5 SSE 17 21 1020.0 - 0.0 - Partly cloudy 10 - - - -
04/08:03pm 19.5 SSE 15 19 1020.0 - 0.0 - Partly cloudy 10 - - - -
04/08:00pm 19.5 SSE 14 18 1020.0 - 0.0 - Partly cloudy 10 - - - -
04/07:34pm 19.6 SSE 15 17 1019.8 - 0.0 - Partly cloudy 10 - - - -
04/07:30pm 19.4 SSE 15 17 1019.8 - 0.0 - Partly cloudy 10 - - - -
04/07:00pm 19.4 SSE 16 19 1019.5 - 0.0 - Partly cloudy 10 - - - -
04/06:30pm 19.2 SSE 18 21 1019.1 - 0.0 - Partly cloudy 10 - - - -
04/06:09pm 19.3 SSE 19 22 1018.8 - 0.0 - Partly cloudy 10 - - - -
04/06:00pm 19.2 SSE 19 22 1018.6 - 0.0 - Partly cloudy 10 - - - -
04/05:56pm 19.4 SSE 20 23 1018.7 - 0.0 - Partly cloudy 10 - - - -
04/05:30pm 19.3 SSE 20 23 1018.5 - 0.0 - Partly cloudy 10 - - - -
04/05:28pm 19.3 SSE 20 23 1018.5 - 0.0 - Partly cloudy 10 - - - -

Other Formats:

Comma delimited format used in spreadsheet applications
http://www.bom.gov.au/fwo/IDQ60701/IDQ60701.94368.axf

JavaScript Object Notation format (JSON) in row-major order
http://www.bom.gov.au/fwo/IDQ60701/IDQ60701.94368.json